Location: Indian Springs
(36.5700°N, 115.6700°W)
Time: 01:14:29
(UTC-07:00)

Amateur Radio Satellites - All Passes

Search period start: 27 August 2016 00:44
Search period end: 28 August 2016 00:44
Location: Indian Springs, 36.5700°N, 115.6700°W

Satellite Date Start Highest point End Downlink Frequencies (MHz)
Time Altitude Azimuth
POLYITAN 1 27 Aug 00:45:09 00:49:10 45° 287° (WNW) 00:53:09 437.675
UKube-1 27 Aug 00:46:46 00:50:47 38° 261° (W) 00:54:50 .
50 SAT 27 Aug 00:54:11 00:55:35 12° 267° (W) 00:56:59 437.505
NANOSAT C BR1 27 Aug 00:54:43 00:58:37 37° 288° (WNW) 01:02:27 145.865
JAS-2 27 Aug 00:55:24 01:02:19 81° 104° (ESE) 01:09:56 435.910
RS-15 27 Aug 01:14:13 01:25:28 68° 113° (ESE) 01:37:21 29.354- 29.394
SWISSCUBE 27 Aug 01:17:21 01:20:36 19° 66° (ENE) 01:23:51 437.505
DANDE 27 Aug 01:18:21 01:19:17 11° 287° (WNW) 01:20:13 436.750
O/OREOS (USA 219) 27 Aug 01:28:55 01:31:26 15° 261° (W) 01:33:56 437.305
SO-50 27 Aug 01:31:30 01:33:51 13° 316° (NW) 01:36:11 436.795
BEESAT 27 Aug 01:33:53 01:37:43 25° 68° (ENE) 01:41:34 436.000
QB50P1 27 Aug 01:40:16 01:41:49 12° 295° (WNW) 01:43:22 145.935-145.965
BUGSAT 1 27 Aug 01:40:22 01:43:56 28° 289° (WNW) 01:47:26 437.445
Gurwin Techsat 1B 27 Aug 01:44:53 01:48:39 19° 94° (E) 01:52:24 435.225
PHONESAT 2.4 27 Aug 01:55:42 01:58:36 47° 154° (SSE) 02:01:30 2401.200-2431.200
TISAT 1 27 Aug 02:09:04 02:12:24 22° 265° (W) 02:15:45 437.305
Oscar 19 27 Aug 02:19:16 02:24:30 84° 285° (WNW) 02:29:41 437.125/150
ITUPSAT 1 27 Aug 02:19:43 02:24:27 75° 76° (ENE) 02:29:13 437.325
JAS-2 27 Aug 02:42:19 02:46:41 18° 297° (WNW) 02:51:18 435.910
SWISSCUBE 27 Aug 02:53:35 02:58:03 41° 261° (W) 03:02:33 437.505
AO-7 27 Aug 03:01:23 03:06:48 19° 93° (E) 03:12:10 29.400- 29.500
BEESAT 27 Aug 03:11:11 03:15:21 30° 263° (W) 03:19:32 436.000
Gurwin Techsat 1B 27 Aug 03:23:44 03:28:47 46° 288° (WNW) 03:33:49 435.225
RS-15 27 Aug 03:28:12 03:38:45 38° 317° (NW) 03:49:51 29.354- 29.394
KKS-1 27 Aug 03:30:19 03:34:34 45° 73° (ENE) 03:38:51 437.445
MOZHAYETS 4 27 Aug 03:30:32 03:35:01 57° 75° (ENE) 03:39:30
ITAMSAT 1 27 Aug 03:31:44 03:36:53 62° 102° (ESE) 03:42:00 435.822/435.867
PHONESAT 2.4 27 Aug 03:32:05 03:34:59 44° 349° (N) 03:37:52 2401.200-2431.200
STARS 27 Aug 04:08:05 04:12:25 57° 74° (ENE) 04:16:47 437.465
Cosmos 2491 27 Aug 04:12:24 04:19:02 23° 68° (ENE) 04:25:36 435.465 / 435.565
HORYU 2 27 Aug 04:47:18 04:49:58 16° 94° (E) 04:52:37 437.375
CUBESAT XI-V 27 Aug 04:48:43 04:53:07 47° 73° (ENE) 04:57:33 437.345
AO-7 27 Aug 04:51:58 05:00:18 80° 289° (WNW) 05:08:34 29.400- 29.500
PHONESAT 2.4 27 Aug 05:08:47 05:11:38 39° 7° (N) 05:14:29 2401.200-2431.200
KKS-1 27 Aug 05:08:51 05:11:20 15° 267° (W) 05:13:48 437.445
MOZHAYETS 4 27 Aug 05:10:58 05:12:30 11° 269° (W) 05:14:02
ITAMSAT 1 27 Aug 05:12:57 05:15:47 15° 297° (WNW) 05:18:37 435.822/435.867
YUBILEINY 27 Aug 05:23:40 05:30:54 30° 84° (E) 05:38:08 435.215
AO-85 27 Aug 05:25:50 05:31:11 80° 118° (ESE) 05:36:18 145.980
STARS 27 Aug 05:47:46 05:49:05 11° 268° (W) 05:50:23 437.465
RS-15 27 Aug 05:49:27 05:56:26 16° 350° (N) 06:03:32 29.354- 29.394
STRAND 1 27 Aug 05:55:23 05:57:59 14° 63° (ENE) 06:00:35 437.568
Cubesat XI-IV 27 Aug 05:56:19 05:59:40 17° 93° (E) 06:03:00 437.490
Cosmos 2504 27 Aug 06:03:40 06:08:29 17° 81° (E) 06:13:08 435.465 / 435.565
CUTE-I 27 Aug 06:07:47 06:11:53 22° 95° (E) 06:15:56 437.470
Cosmos 2491 27 Aug 06:07:50 06:16:36 71° 267° (W) 06:25:20 435.465 / 435.565
GOMX 1 27 Aug 06:08:09 06:12:28 24° 93° (E) 06:16:36 467.674
NOAA 15 27 Aug 06:10:41 06:15:22 31° 97° (E) 06:20:01 137.62
DOVE 4 27 Aug 06:19:52 06:21:43 12° 89° (E) 06:23:33 437.250
HORYU 2 27 Aug 06:22:32 06:26:40 40° 288° (WNW) 06:30:46 437.375
BRITE-PL 27 Aug 06:27:54 06:33:39 86° 102° (ESE) 06:39:13 437.365/2234.400
CUBESAT XI-V 27 Aug 06:28:15 06:30:43 14° 268° (W) 06:33:13 437.345
NOAA 18 27 Aug 06:41:59 06:47:09 42° 99° (E) 06:52:16 137.9125
PHONESAT 2.4 27 Aug 06:45:08 06:48:07 69° 203° (SSW) 06:51:05 2401.200-2431.200
AO-7 27 Aug 06:47:05 06:51:47 17° 308° (NW) 06:56:28 29.400- 29.500
LilacSat-2 27 Aug 07:02:12 07:05:59 84° 282° (WNW) 07:09:44 437.200
AO-85 27 Aug 07:09:07 07:12:10 15° 314° (NW) 07:15:08 145.980
YUBILEINY 27 Aug 07:18:34 07:27:09 54° 282° (WNW) 07:35:47 435.215
STRAND 1 27 Aug 07:31:32 07:36:35 64° 259° (WSW) 07:41:40 437.568
HO-68 27 Aug 07:33:27 07:38:47 22° 94° (E) 07:44:05 435.675
Cubesat XI-IV 27 Aug 07:34:51 07:40:01 53° 288° (WNW) 07:45:09 437.490
GOMX 1 27 Aug 07:45:39 07:50:36 37° 289° (WNW) 07:55:19 467.674
CUTE-I 27 Aug 07:47:05 07:52:00 40° 290° (WNW) 07:56:55 437.470
ISS 27 Aug 07:49:47 07:52:21 21° 130° (SE) 07:54:56 145.825
NOAA 15 27 Aug 07:50:29 07:55:01 29° 292° (WNW) 07:59:33 137.62
Cosmos 2504 27 Aug 07:52:19 08:00:55 84° 277° (W) 08:08:57 435.465 / 435.565
DOVE 4 27 Aug 07:54:54 07:59:54 63° 285° (WNW) 08:04:36 437.250
CANX-2 27 Aug 07:57:05 08:00:46 28° 97° (E) 08:04:26 2200.000
PRISM 27 Aug 07:58:32 08:01:49 24° 69° (ENE) 08:05:07 437.425
CUTE 1.7 + AOD 2 27 Aug 08:03:17 08:06:58 29° 96° (E) 08:10:40 437.475
RS-15 27 Aug 08:06:42 08:15:48 23° 27° (NNE) 08:24:51 29.354- 29.394
BRITE-PL 27 Aug 08:08:51 08:11:15 13° 298° (WNW) 08:13:39 437.365/2234.400
Cosmos 2491 27 Aug 08:10:24 08:11:42 10° 285° (WNW) 08:12:59 435.465 / 435.565
AAUSAT CUBESAT 2 27 Aug 08:11:03 08:12:46 12° 92° (E) 08:14:29 437.432
COMPASS 1 27 Aug 08:17:24 08:20:28 19° 95° (E) 08:23:30 437.405
AIST 1 27 Aug 08:18:56 08:21:01 13° 85° (E) 08:23:04
SO-50 27 Aug 08:22:05 08:26:21 37° 54° (NE) 08:30:31 436.795
PHONESAT 2.4 27 Aug 08:23:00 08:24:04 11° 216° (SW) 08:25:09 2401.200-2431.200
NOAA 18 27 Aug 08:23:16 08:27:30 23° 295° (WNW) 08:31:43 137.9125
CINEMA 3 27 Aug 08:39:31 08:44:02 77° 283° (WNW) 08:48:19 145.822/145.860
Oscar 11 27 Aug 08:48:46 08:50:50 13° 92° (E) 08:52:53 145.826/435.025
FUNcube-1 27 Aug 08:55:25 08:57:33 14° 93° (E) 08:59:41 145.935
UWE-3 27 Aug 08:59:46 09:03:22 28° 96° (E) 09:06:56 435.000/436.395/437.385
CUBEBUG 2 27 Aug 09:00:47 09:04:52 45° 99° (E) 09:08:50 437.445
SEEDS 27 Aug 09:11:52 09:16:00 59° 285° (WNW) 09:20:09 437.485
BEESAT 2 27 Aug 09:13:39 09:16:16 17° 110° (ESE) 09:18:55 435.950
ZACube-1 27 Aug 09:15:28 09:18:59 26° 96° (E) 09:22:27 437.345
ANTELSAT 27 Aug 09:15:35 09:18:46 19° 68° (ENE) 09:21:54 437.575/2403.000
CUSAT 1 27 Aug 09:18:22 09:23:24 22° 73° (ENE) 09:29:02 437.405
HO-68 27 Aug 09:19:51 09:26:53 62° 290° (WNW) 09:33:53 435.675
ISS 27 Aug 09:25:40 09:28:40 32° 326° (NW) 09:31:41 145.825
BEESAT 3 27 Aug 09:31:18 09:35:09 60° 116° (ESE) 09:39:01 437.485
CANX-2 27 Aug 09:33:16 09:36:25 21° 291° (WNW) 09:39:35 2200.000
PRISM 27 Aug 09:33:46 09:37:01 23° 264° (W) 09:40:18 437.425
CUTE 1.7 + AOD 2 27 Aug 09:39:29 09:42:37 20° 291° (WNW) 09:45:45 437.475
AAUSAT CUBESAT 2 27 Aug 09:44:29 09:48:27 45° 286° (WNW) 09:52:25 437.432
TIGRISAT 27 Aug 09:45:26 09:49:40 37° 72° (ENE) 09:53:50 435.000
Cosmos 2504 27 Aug 09:51:12 09:55:18 14° 294° (WNW) 09:59:17 435.465 / 435.565
DELFI C3 27 Aug 09:52:14 09:55:44 28° 97° (E) 09:59:12 145.870
COMPASS 1 27 Aug 09:52:23 09:56:00 29° 289° (WNW) 09:59:37 437.405
AIST 1 27 Aug 09:54:02 09:58:09 42° 281° (W) 10:02:19
SO-50 27 Aug 10:03:12 10:06:31 20° 250° (WSW) 10:09:47 436.795
HUMSAT D 27 Aug 10:06:04 10:09:00 19° 95° (E) 10:11:55 437.325/437.525
DANDE 27 Aug 10:10:45 10:14:58 21° 76° (ENE) 10:19:58 436.750
UNISAT 6 27 Aug 10:13:28 10:18:06 82° 78° (ENE) 10:22:40 437.425
RS-15 27 Aug 10:19:04 10:31:25 65° 55° (NE) 10:43:26 29.354- 29.394
Oscar 11 27 Aug 10:23:03 10:27:10 45° 286° (WNW) 10:31:16 145.826/435.025
FUNcube-1 27 Aug 10:30:06 10:33:57 39° 287° (WNW) 10:37:47 145.935
PCSat 27 Aug 10:33:06 10:35:54 14° 103° (ESE) 10:38:43 145.827
UWE-3 27 Aug 10:36:36 10:39:39 20° 291° (WNW) 10:42:39 435.000/436.395/437.385
CUBEBUG 2 27 Aug 10:39:06 10:41:03 13° 294° (WNW) 10:42:58 437.445
BEESAT 2 27 Aug 10:50:14 10:53:49 33° 305° (NW) 10:57:27 435.950
ANTELSAT 27 Aug 10:50:52 10:55:10 38° 262° (W) 10:59:25 437.575/2403.000
ZACube-1 27 Aug 10:51:59 10:55:07 21° 291° (WNW) 10:58:12 437.345
QB50P1 27 Aug 10:52:31 10:56:12 29° 71° (ENE) 10:59:53 145.935-145.965
BUGSAT 1 27 Aug 10:54:50 10:55:57 11° 64° (ENE) 10:57:04 437.445
CUSAT 1 27 Aug 10:59:02 11:05:34 65° 264° (W) 11:13:17 437.405
Cosmos 2499 27 Aug 11:01:26 11:06:55 20° 83° (E) 11:12:11 435.465 / 435.565
POPSAT HIP 1 27 Aug 11:02:12 11:06:08 36° 72° (ENE) 11:10:04 437.405
JAS-2 27 Aug 11:07:41 11:11:36 22° 65° (ENE) 11:15:41 435.910
BEESAT 3 27 Aug 11:11:36 11:13:11 12° 314° (NW) 11:14:47 437.485
AIST 2 27 Aug 11:21:47 11:24:26 17° 110° (ESE) 11:27:06 435.215
TIGRISAT 27 Aug 11:23:11 11:26:24 19° 266° (W) 11:29:37 435.000
DELFI C3 27 Aug 11:27:33 11:30:21 19° 291° (WNW) 11:33:09 145.870
DUCHIFAT 1 27 Aug 11:30:00 11:34:14 70° 76° (ENE) 11:38:29 145.980
QB50P2 27 Aug 11:32:06 11:36:24 89° 263° (W) 11:40:42 145.880/145.840
GONETS M04 27 Aug 11:33:46 11:42:00 48° 89° (E) 11:50:18
POLYITAN 1 27 Aug 11:34:38 11:38:55 87° 264° (W) 11:43:13 437.675
VELOX 1 27 Aug 11:37:26 11:40:22 17° 94° (E) 11:43:17 145.980
JUGNU 27 Aug 11:38:24 11:41:17 14° 173° (S) 11:44:10 437.505
CUBEBUG 1 27 Aug 11:39:57 11:43:29 23° 95° (E) 11:46:59 437.445
HUMSAT D 27 Aug 11:41:07 11:44:36 28° 289° (WNW) 11:48:06 437.325/437.525
NANOSAT C BR1 27 Aug 11:43:38 11:47:53 74° 259° (W) 11:52:09 145.865
AUBIESAT-1 27 Aug 11:51:54 11:55:52 58° 104° (ESE) 11:59:30 437.475
DANDE 27 Aug 11:52:12 11:57:41 55° 264° (W) 12:04:44 436.750
DX 1 27 Aug 11:55:50 11:58:50 18° 94° (E) 12:01:49 434.975-435.025
M-CUBED/EXP-1 PRIME 27 Aug 11:57:14 12:01:21 88° 114° (ESE) 12:05:06 437.505
Oscar 19 27 Aug 11:58:00 12:00:03 12° 62° (ENE) 12:02:06 437.125/150
SPROUT 27 Aug 12:00:02 12:02:26 15° 93° (E) 12:04:50 437.525
PCSat 27 Aug 12:13:18 12:18:40 66° 299° (WNW) 12:24:05 145.827
ESTCUBE 1 27 Aug 12:15:26 12:20:00 86° 283° (WNW) 12:24:33 437.505/2401.250
50 SAT 27 Aug 12:22:11 12:25:48 60° 101° (E) 12:29:24 437.505
AISAT 27 Aug 12:25:09 12:29:36 65° 102° (ESE) 12:34:00 437.250
BUGSAT 1 27 Aug 12:26:35 12:30:46 59° 259° (W) 12:34:59 437.445
QB50P1 27 Aug 12:28:43 12:31:56 21° 265° (W) 12:35:11 145.935-145.965
RS-15 27 Aug 12:32:33 12:43:07 36° 256° (WSW) 12:53:30 29.354- 29.394
UKube-1 27 Aug 12:36:02 12:40:07 40° 99° (E) 12:44:10 .
POPSAT HIP 1 27 Aug 12:39:18 12:42:00 16° 266° (W) 12:44:43 437.405
Cosmos 2499 27 Aug 12:51:06 12:59:21 70° 278° (W) 13:07:00 435.465 / 435.565
JAS-2 27 Aug 12:51:38 12:56:26 38° 263° (W) 13:01:26 435.910
AIST 2 27 Aug 12:58:48 13:02:36 37° 305° (NW) 13:06:26 435.215
Gurwin Techsat 1B 27 Aug 13:03:30 13:07:46 25° 67° (ENE) 13:12:03 435.225
VELOX 1 27 Aug 13:12:48 13:16:56 37° 288° (WNW) 13:21:02 145.980
SRMSAT 27 Aug 13:15:44 13:17:39 12° 169° (S) 13:19:34 437.500
CUBEBUG 1 27 Aug 13:15:56 13:19:42 28° 290° (WNW) 13:23:26 437.445
JUGNU 27 Aug 13:26:20 13:29:30 15° 184° (S) 13:32:39 437.505
AUBIESAT-1 27 Aug 13:29:11 13:29:41 10° 302° (WNW) 13:30:12 437.475
DX 1 27 Aug 13:31:06 13:35:05 35° 289° (WNW) 13:39:03 434.975-435.025
GONETS M04 27 Aug 13:31:16 13:38:58 34° 287° (WNW) 13:46:45
Oscar 19 27 Aug 13:33:32 13:38:40 75° 258° (WSW) 13:43:53 437.125/150
SPROUT 27 Aug 13:34:32 13:38:31 39° 287° (WNW) 13:42:29 437.525
TISAT 1 27 Aug 13:54:17 13:58:28 66° 101° (E) 14:02:36 437.305
O/OREOS (USA 219) 27 Aug 13:57:34 14:02:02 88° 110° (ESE) 14:06:35 437.305
AO-7 27 Aug 13:58:00 14:04:12 24° 56° (ENE) 14:10:23 29.400- 29.500
AO-85 27 Aug 14:00:59 14:04:44 30° 52° (NE) 14:08:15 145.980
PCSat 27 Aug 14:02:57 14:03:07 10° 318° (NW) 14:03:16 145.827
AISAT 27 Aug 14:04:18 14:05:28 11° 297° (WNW) 14:06:38 437.250
UKube-1 27 Aug 14:13:08 14:15:48 16° 294° (WNW) 14:18:27 .
ISS 27 Aug 14:19:36 14:21:35 15° 25° (NNE) 14:23:33 145.825
ITUPSAT 1 27 Aug 14:23:19 14:27:05 23° 95° (E) 14:30:50 437.325
Gurwin Techsat 1B 27 Aug 14:42:38 14:47:30 36° 262° (W) 14:52:23 435.225
ITAMSAT 1 27 Aug 14:47:10 14:52:20 74° 75° (ENE) 14:57:31 435.822/435.867
Cosmos 2499 27 Aug 14:52:52 14:53:41 10° 296° (WNW) 14:54:30 435.465 / 435.565
SWISSCUBE 27 Aug 14:55:46 15:00:29 60° 101° (E) 15:05:11 437.505
SRMSAT 27 Aug 15:02:45 15:05:59 15° 179° (S) 15:09:14 437.500
BEESAT 27 Aug 15:12:53 15:17:40 82° 102° (ESE) 15:22:26 436.000
MOZHAYETS 4 27 Aug 15:29:09 15:32:00 16° 93° (E) 15:34:51
YUBILEINY 27 Aug 15:39:28 15:41:47 11° 60° (ENE) 15:44:05 435.215
AO-85 27 Aug 15:41:55 15:44:53 20° 250° (WSW) 15:47:45 145.980
HORYU 2 27 Aug 15:44:18 15:45:56 12° 64° (ENE) 15:47:33 437.375
AO-7 27 Aug 15:47:47 15:56:08 75° 254° (WSW) 16:04:31 29.400- 29.500
ISS 27 Aug 15:55:07 15:58:24 79° 221° (SW) 16:01:40 145.825
ITUPSAT 1 27 Aug 16:00:41 16:04:54 32° 290° (WNW) 16:09:07 437.325
STARS 27 Aug 16:01:59 16:03:44 12° 92° (E) 16:05:30 437.465
ITAMSAT 1 27 Aug 16:30:56 16:32:17 11° 269° (W) 16:33:39 435.822/435.867
SWISSCUBE 27 Aug 16:35:28 16:37:44 13° 296° (WNW) 16:40:01 437.505
CUBESAT XI-V 27 Aug 16:49:02 16:51:39 15° 92° (E) 16:54:14 437.345
SRMSAT 27 Aug 16:52:02 16:54:20 12° 190° (S) 16:56:39 437.500
KKS-1 27 Aug 16:59:52 17:04:17 62° 286° (WNW) 17:08:40 437.445
MOZHAYETS 4 27 Aug 17:05:01 17:09:19 41° 287° (WNW) 17:13:37
Cosmos 2491 27 Aug 17:10:58 17:17:56 28° 83° (E) 17:24:56 435.465 / 435.565
GOMX 1 27 Aug 17:13:47 17:17:27 20° 65° (ENE) 17:21:15 467.674
Cubesat XI-IV 27 Aug 17:15:45 17:19:52 23° 66° (ENE) 17:23:59 437.490
HORYU 2 27 Aug 17:17:32 17:21:56 60° 259° (WSW) 17:26:21 437.375
DOVE 4 27 Aug 17:23:19 17:24:51 11° 62° (ENE) 17:26:23 437.250
CUTE-I 27 Aug 17:27:06 17:31:40 30° 68° (ENE) 17:36:14 437.470
NOAA 15 27 Aug 17:28:18 17:33:07 39° 70° (ENE) 17:37:59 137.62
YUBILEINY 27 Aug 17:31:35 17:40:21 69° 81° (E) 17:48:59 435.215
BRITE-PL 27 Aug 17:35:56 17:40:39 72° 76° (ENE) 17:45:51 437.365/2234.400
STARS 27 Aug 17:36:06 17:40:22 50° 287° (WNW) 17:44:36 437.465
LilacSat-2 27 Aug 17:41:47 17:45:12 31° 73° (ENE) 17:48:37 437.200
AO-7 27 Aug 17:47:35 17:50:03 11° 270° (W) 17:52:31 29.400- 29.500
Cosmos 2504 27 Aug 17:49:02 17:55:01 27° 72° (ENE) 18:00:56 435.465 / 435.565
BEESAT 3 27 Aug 17:51:27 17:54:11 18° 50° (NE) 17:56:54 437.485
HO-68 27 Aug 18:02:16 18:05:31 14° 55° (NE) 18:08:47 435.675
NOAA 18 27 Aug 18:05:39 18:11:06 64° 73° (ENE) 18:16:35 137.9125
CUBESAT XI-V 27 Aug 18:24:43 18:29:14 49° 287° (WNW) 18:33:46 437.345
CANX-2 27 Aug 18:48:34 18:51:04 16° 67° (ENE) 18:53:32 2200.000
GOMX 1 27 Aug 18:50:19 18:55:05 45° 263° (W) 19:00:11 467.674
CUTE 1.7 + AOD 2 27 Aug 18:54:38 18:57:10 16° 67° (ENE) 18:59:40 437.475
Cubesat XI-IV 27 Aug 18:54:38 18:59:39 41° 261° (W) 19:04:40 437.490
DOVE 4 27 Aug 18:56:34 19:01:41 85° 259° (W) 19:07:01 437.250
Cosmos 2491 27 Aug 19:05:40 19:14:09 56° 281° (W) 19:22:45 435.465 / 435.565
CUTE-I 27 Aug 19:06:55 19:11:36 31° 263° (W) 19:16:17 437.470
NOAA 15 27 Aug 19:08:55 19:12:59 23° 265° (W) 19:17:04 137.62
BEESAT 2 27 Aug 19:09:55 19:13:54 61° 59° (ENE) 19:17:51 435.950
LilacSat-2 27 Aug 19:17:19 19:19:33 15° 266° (W) 19:21:48 437.200
BRITE-PL 27 Aug 19:19:01 19:19:47 10° 273° (W) 19:20:35 437.365/2234.400
BEESAT 3 27 Aug 19:28:18 19:31:59 37° 246° (WSW) 19:35:37 437.485
YUBILEINY 27 Aug 19:30:01 19:36:14 22° 279° (W) 19:42:26 435.215
CINEMA 3 27 Aug 19:37:25 19:42:25 72° 76° (ENE) 19:47:23 145.822/145.860
Cosmos 2504 27 Aug 19:41:48 19:48:33 45° 270° (W) 19:55:17 435.465 / 435.565
STRAND 1 27 Aug 19:44:28 19:49:28 53° 101° (E) 19:54:26 437.568
HO-68 27 Aug 19:44:54 19:52:04 79° 73° (ENE) 19:59:18 435.675
NOAA 18 27 Aug 19:49:09 19:52:09 15° 268° (W) 19:55:10 137.9125
UWE-3 27 Aug 19:54:36 19:57:52 20° 69° (ENE) 20:01:05 435.000/436.395/437.385
CUBEBUG 2 27 Aug 19:56:06 20:00:12 31° 71° (ENE) 20:04:15 437.445
SEEDS 27 Aug 20:00:44 20:04:50 66° 76° (ENE) 20:08:58 437.485
AIST 1 27 Aug 20:03:30 20:07:31 34° 78° (ENE) 20:11:30
ZACube-1 27 Aug 20:09:24 20:12:21 18° 68° (ENE) 20:15:16 437.345
CANX-2 27 Aug 20:22:39 20:26:34 38° 262° (W) 20:30:30 2200.000
CUTE 1.7 + AOD 2 27 Aug 20:28:46 20:32:39 37° 262° (W) 20:36:35 437.475
AAUSAT CUBESAT 2 27 Aug 20:31:41 20:35:47 81° 75° (ENE) 20:39:54 437.432
DELFI C3 27 Aug 20:37:28 20:39:07 12° 67° (ENE) 20:40:45 145.870
COMPASS 1 27 Aug 20:39:53 20:43:57 60° 260° (W) 20:48:02 437.405
HUMSAT D 27 Aug 20:57:20 20:58:03 10° 65° (ENE) 20:58:46 437.325/437.525
PCSat 27 Aug 21:03:35 21:08:57 58° 60° (ENE) 21:14:16 145.827
Oscar 11 27 Aug 21:14:46 21:19:03 84° 256° (WSW) 21:23:23 145.826/435.025
PRISM 27 Aug 21:16:36 21:20:43 54° 101° (E) 21:24:47 437.425
CINEMA 3 27 Aug 21:18:35 21:19:57 11° 270° (W) 21:21:18 145.822/145.860
AIST 2 27 Aug 21:21:54 21:26:04 64° 58° (ENE) 21:30:13 435.215
FUNcube-1 27 Aug 21:22:14 21:26:42 74° 258° (WSW) 21:31:05 145.935
STRAND 1 27 Aug 21:24:58 21:28:10 17° 296° (WNW) 21:31:22 437.568
UWE-3 27 Aug 21:29:51 21:34:03 35° 262° (W) 21:38:13 435.000/436.395/437.385
CUBEBUG 2 27 Aug 21:33:03 21:36:47 23° 265° (W) 21:40:27 437.445
HO-68 27 Aug 21:36:09 21:40:25 16° 268° (W) 21:44:43 435.675
AIST 1 27 Aug 21:42:00 21:44:47 17° 273° (W) 21:47:33
ZACube-1 27 Aug 21:44:10 21:48:20 38° 262° (W) 21:52:27 437.345
GONETS M04 27 Aug 21:48:01 21:54:16 21° 67° (ENE) 22:00:26
UNISAT 6 27 Aug 22:08:43 22:11:47 19° 94° (E) 22:14:49 437.425
DELFI C3 27 Aug 22:09:49 22:13:33 42° 261° (W) 22:17:18 145.870
HUMSAT D 27 Aug 22:29:02 22:33:09 58° 259° (W) 22:37:15 437.325/437.525
O/OREOS (USA 219) 27 Aug 22:33:25 22:34:37 11° 55° (NE) 22:35:48 437.305
VELOX 1 27 Aug 22:33:46 22:35:29 12° 64° (ENE) 22:37:12 145.980
AUBIESAT-1 27 Aug 22:34:16 22:38:44 52° 69° (ENE) 22:43:14 437.475
SO-50 27 Aug 22:34:19 22:38:03 22° 111° (ESE) 22:41:47 436.795
CUBEBUG 1 27 Aug 22:34:30 22:37:00 15° 66° (ENE) 22:39:31 437.445
M-CUBED/EXP-1 PRIME 27 Aug 22:39:53 22:44:31 74° 72° (ENE) 22:49:14 437.505
ANTELSAT 27 Aug 22:44:47 22:48:58 51° 100° (E) 22:53:05 437.575/2403.000
Cosmos 2499 27 Aug 22:45:38 22:51:51 33° 75° (ENE) 22:58:08 435.465 / 435.565
PCSat 27 Aug 22:48:30 22:51:48 16° 256° (WSW) 22:55:04 145.827
DX 1 27 Aug 22:50:22 22:52:08 12° 64° (ENE) 22:53:55 434.975-435.025
PRISM 27 Aug 22:54:06 22:55:31 11° 295° (WNW) 22:56:55 437.425
50 SAT 27 Aug 22:57:56 23:00:22 18° 69° (ENE) 23:02:49 437.505
ESTCUBE 1 27 Aug 23:12:15 23:16:40 63° 75° (ENE) 23:21:07 437.505/2401.250
TIGRISAT 27 Aug 23:15:38 23:19:54 71° 284° (WNW) 23:24:07 435.000
DUCHIFAT 1 27 Aug 23:18:23 23:20:21 13° 93° (E) 23:22:18 145.980
AISAT 27 Aug 23:19:55 23:24:06 42° 72° (ENE) 23:28:19 437.250
QB50P2 27 Aug 23:20:35 23:23:25 17° 94° (E) 23:26:15 145.880/145.840
POLYITAN 1 27 Aug 23:23:06 23:25:57 18° 94° (E) 23:28:47 437.675
UKube-1 27 Aug 23:28:26 23:31:57 25° 69° (ENE) 23:35:31 .
NANOSAT C BR1 27 Aug 23:31:16 23:34:25 20° 95° (E) 23:37:33 145.865
GONETS M04 27 Aug 23:43:08 23:51:59 78° 266° (W) 00:00:47
UNISAT 6 27 Aug 23:44:46 23:48:31 30° 289° (WNW) 23:52:15 437.425
JAS-2 28 Aug 00:01:01 00:07:14 33° 97° (E) 00:13:54 435.910
CUSAT 1 28 Aug 00:02:23 00:04:54 28° 286° (WNW) 00:07:53 437.405
VELOX 1 28 Aug 00:07:02 00:11:24 58° 259° (W) 00:15:49 145.980
CUBEBUG 1 28 Aug 00:08:41 00:12:52 44° 261° (W) 00:17:07 437.445
O/OREOS (USA 219) 28 Aug 00:09:57 00:14:33 74° 252° (WSW) 00:19:08 437.305
AUBIESAT-1 28 Aug 00:10:48 00:13:22 15° 263° (W) 00:15:59 437.475
BUGSAT 1 28 Aug 00:11:32 00:14:48 22° 95° (E) 00:18:00 437.445
SO-50 28 Aug 00:13:45 00:18:17 39° 306° (NW) 00:22:49 436.795
QB50P1 28 Aug 00:14:36 00:18:50 75° 102° (ESE) 00:23:01 145.935-145.965
M-CUBED/EXP-1 PRIME 28 Aug 00:18:44 00:19:25 10° 265° (W) 00:20:05 437.505
ANTELSAT 28 Aug 00:23:28 00:25:12 12° 295° (WNW) 00:26:56 437.575/2403.000
DX 1 28 Aug 00:23:32 00:27:48 55° 259° (W) 00:32:07 434.975-435.025
POPSAT HIP 1 28 Aug 00:24:39 00:28:52 84° 284° (WNW) 00:33:03 437.405
SPROUT 28 Aug 00:24:53 00:29:11 75° 258° (WSW) 00:33:31 437.525
50 SAT 28 Aug 00:30:54 00:33:47 23° 264° (W) 00:36:40 437.505
